Ottumwa, IA

6:56 AM CDT on August 24, 2017 (GMT -0500)
Ottumwa Industrial

Weather History for KOTM - December, 2011

Change the Weather History Date:

Wednesday, December 14, 2011

  Actual Average Record
Temperature  
Mean Temperature 50 °F 26 °F  
Max Temperature 57 °F 35 °F 61 °F (2008)
Min Temperature 42 °F 17 °F -10 °F (1985)
Degree Days  
Heating Degree Days 15 39  
Month to date heating degree days 487 513  
Since 1 July heating degree days 1683 1811  
Cooling Degree Days 0 0  
Month to date cooling degree days 0 0  
Year to date cooling degree days 1111 938  
Moisture  
Dew Point 48 °F    
Average Humidity 92    
Maximum Humidity 100    
Minimum Humidity 83    
Precipitation  
Precipitation 0.66 in 0.04 in 1.08 in (1971)
Month to date precipitation 2.26 0.73  
Year to date precipitation 34.85 36.43  
Sea Level Pressure  
Sea Level Pressure 29.85 in    
Wind  
Wind Speed 10 mph (South)    
Max Wind Speed 21 mph    
Max Gust Speed 24 mph    
Visibility 6 miles    
Events Rain , Thunderstorm    
T = Trace of Precipitation, MM = Missing Value Source: NWS Daily Summary

Daily Weather History Graph

Daily Weather History Graph

Search for Another Location

Airport or City:

Trip Planner

Search our weather history database for the weather conditions in past years. The results will help you decide how hot, cold, wet, or windy it might be!

Date:

Astronomy

Dec. 14, 2011 Rise Set
Actual Time 7:27 AM CST 4:41 PM CST
Civil Twilight 6:55 AM CST 5:12 PM CST
Nautical Twilight 6:21 AM CST 5:47 PM CST
Astronomical Twilight 5:47 AM CST 6:21 PM CST
Moon 9:04 PM CST (12/14) 10:10 AM CST (12/14)
Length of Visible Light 10h 16m
Length of Day
9h 14m
Waning Gibbous, 83% of the Moon is Illuminated
Dec 14
Waning Gibbous
Dec 17
Last Quarter
Dec 24
New
Jan 1
First Quarter
Jan 9
Full

Hourly Weather History & Observations

Time (CST) Temp. Windchill Dew Point Humidity Pressure Visibility Wind Dir Wind Speed Gust Speed Precip Events Conditions
12:10 AM 42.8 °F 38.6 °F 42.8 °F 100% 30.10 in 4.0 mi SE 6.9 mph - 0.02 in Rain Light Rain
12:25 AM 42.8 °F 38.0 °F 41.0 °F 93% 30.07 in 2.5 mi SE 8.1 mph - 0.08 in Rain Rain
12:40 AM 42.8 °F 38.0 °F 42.8 °F 100% 30.08 in 7.0 mi SSE 8.1 mph - 0.12 in Rain Light Rain
12:53 AM 42.1 °F 36.1 °F 42.1 °F 100% 30.06 in 7.0 mi ESE 10.4 mph - 0.13 in Rain Light Rain
1:53 AM 43.0 °F 37.7 °F 42.1 °F 97% 30.05 in 7.0 mi SSE 9.2 mph - 0.04 in   Overcast
2:32 AM 42.8 °F - 42.8 °F 100% 30.04 in 2.5 mi Calm Calm - 0.06 in Rain Light Rain
2:40 AM 42.8 °F 39.3 °F 42.8 °F 100% 30.05 in 3.0 mi South 5.8 mph - 0.06 in Rain Light Rain
2:48 AM 42.8 °F 40.1 °F 42.8 °F 100% 30.03 in 2.0 mi SE 4.6 mph - 0.10 in Rain Heavy Rain
2:53 AM 43.0 °F 41.3 °F 43.0 °F 100% 30.04 in 2.0 mi SE 3.5 mph - 0.11 in Rain Rain
3:07 AM 42.8 °F 38.6 °F 42.8 °F 100% 30.02 in 3.0 mi SSE 6.9 mph - 0.01 in Rain Light Rain
3:17 AM 42.8 °F 38.0 °F 42.8 °F 100% 30.00 in 2.0 mi SSE 8.1 mph - 0.03 in Rain Rain
3:30 AM 44.6 °F 39.7 °F 44.6 °F 100% 30.00 in 4.0 mi SSE 9.2 mph - 0.04 in Rain Light Rain
3:53 AM 44.1 °F 39.0 °F 44.1 °F 100% 30.00 in 4.0 mi South 9.2 mph - 0.05 in Rain Light Rain
4:44 AM 44.6 °F 39.7 °F 44.6 °F 100% 29.96 in 4.0 mi South 9.2 mph - 0.02 in Rain Light Rain
4:53 AM 45.0 °F 40.1 °F 44.1 °F 97% 29.96 in 5.0 mi South 9.2 mph - 0.03 in Rain Light Rain
5:53 AM 45.0 °F 41.8 °F 45.0 °F 100% 29.94 in 2.5 mi South 5.8 mph - 0.10 in Rain Light Rain
6:01 AM 44.6 °F 41.4 °F 44.6 °F 100% 29.93 in 5.0 mi SSW 5.8 mph - 0.00 in Rain Light Rain
6:39 AM 44.6 °F 39.2 °F 44.6 °F 100% 29.93 in 6.0 mi South 10.4 mph - N/A   Overcast
6:53 AM 46.0 °F 40.6 °F 45.0 °F 96% 29.94 in 7.0 mi South 11.5 mph - 0.00 in Rain Light Rain
7:07 AM 46.4 °F 40.7 °F 46.4 °F 100% 29.92 in 9.0 mi South 12.7 mph - N/A   Overcast
7:53 AM 46.0 °F 41.4 °F 46.0 °F 100% 29.93 in 8.0 mi South 9.2 mph - 0.01 in Rain Light Rain
8:53 AM 46.9 °F - 46.9 °F 100% 29.91 in 8.0 mi South 8.1 mph - 0.00 in   Overcast
9:12 AM 48.2 °F - 46.4 °F 93% 29.90 in 9.0 mi South 9.2 mph - N/A   Overcast
9:35 AM 48.2 °F - 48.2 °F 100% 29.89 in 10.0 mi South 5.8 mph - 0.00 in   Overcast
9:53 AM 48.0 °F - 48.0 °F 100% 29.90 in 10.0 mi South 6.9 mph - 0.00 in Rain Light Rain
10:53 AM 48.9 °F - 48.9 °F 100% 29.86 in 4.0 mi South 8.1 mph - 0.03 in Rain , Thunderstorm Light Rain
10:58 AM 48.2 °F - 48.2 °F 100% 29.86 in 1.8 mi South 9.2 mph - 0.03 in Rain , Thunderstorm Heavy Rain
11:04 AM 50.0 °F - 48.2 °F 94% 29.85 in 2.0 mi South 11.5 mph - N/A Rain Light Rain
11:12 AM 50.0 °F - 50.0 °F 100% 29.87 in 8.0 mi South 10.4 mph - 0.04 in Rain Light Rain
11:53 AM 50.0 °F - 50.0 °F 100% 29.82 in 7.0 mi South 9.2 mph - 0.05 in Rain Light Rain
12:15 PM 50.0 °F - 50.0 °F 100% 29.82 in 5.0 mi South 13.8 mph - 0.01 in Rain , Thunderstorm Light Thunderstorms and Rain
12:26 PM 50.0 °F - 48.2 °F 94% 29.75 in 2.5 mi SE 6.9 mph - 0.07 in Rain , Thunderstorm Thunderstorms and Rain
12:36 PM 50.0 °F - 48.2 °F 94% 29.76 in 3.0 mi SSE 9.2 mph - 0.10 in Rain , Thunderstorm Thunderstorms and Rain
12:53 PM 50.0 °F - 50.0 °F 100% 29.79 in 10.0 mi South 13.8 mph - 0.10 in Rain Light Rain
2:53 PM 51.1 °F - 51.1 °F 100% 29.72 in 7.0 mi South 11.5 mph - 0.00 in   Overcast
3:53 PM 52.0 °F - 52.0 °F 100% 29.70 in 3.0 mi South 11.5 mph - N/A   Overcast
4:02 PM 51.8 °F - 51.8 °F 100% 29.70 in 2.5 mi South 10.4 mph - N/A   Overcast
4:15 PM 51.8 °F - 51.8 °F 100% 29.69 in 2.5 mi South 11.5 mph - 0.01 in   Overcast
4:26 PM 51.8 °F - 51.8 °F 100% 29.70 in 1.5 mi South 11.5 mph - 0.01 in   Overcast
4:41 PM 53.6 °F - 53.6 °F 100% 29.70 in 3.0 mi South 11.5 mph - 0.01 in   Overcast
4:53 PM 53.1 °F - 53.1 °F 100% 29.70 in 4.0 mi South 11.5 mph - 0.01 in   Overcast
5:44 PM 53.6 °F - 53.6 °F 100% 29.68 in 7.0 mi South 10.4 mph - N/A   Overcast
5:53 PM 54.0 °F - 54.0 °F 100% 29.68 in 7.0 mi South 11.5 mph - N/A   Overcast
6:34 PM 55.4 °F - 55.4 °F 100% 29.68 in 7.0 mi South 10.4 mph - N/A   Overcast
6:53 PM 55.9 °F - 55.0 °F 97% 29.69 in 8.0 mi South 11.5 mph - N/A   Overcast
7:53 PM 57.0 °F - 55.0 °F 93% 29.67 in 10.0 mi SSW 12.7 mph - N/A   Mostly Cloudy
8:38 PM 57.2 °F - 53.6 °F 88% 29.67 in 10.0 mi WSW 13.8 mph - 0.00 in   Overcast
8:53 PM 55.9 °F - 54.0 °F 93% 29.68 in 10.0 mi West 11.5 mph - 0.00 in   Overcast
9:33 PM 53.6 °F - 50.0 °F 88% 29.70 in 10.0 mi West 13.8 mph 23.0 mph N/A   Overcast
9:53 PM 53.1 °F - 48.9 °F 86% 29.70 in 10.0 mi West 11.5 mph - N/A   Mostly Cloudy
10:29 PM 51.8 °F - 48.2 °F 88% 29.72 in 10.0 mi West 16.1 mph - N/A   Overcast
10:53 PM 50.0 °F - 46.9 °F 89% 29.71 in 10.0 mi West 12.7 mph 23.0 mph N/A   Mostly Cloudy
11:38 PM 48.2 °F - 46.4 °F 93% 29.73 in 10.0 mi West 17.3 mph - N/A   Overcast
11:53 PM 48.0 °F - 46.0 °F 93% 29.74 in 10.0 mi WNW 16.1 mph - N/A   Overcast